timestamp,wind_dir_avg,wind_spd_avg,wind_spd_max_dir,wind_spd_gust,battery_voltage,lat,long
2022-02-07 00:04:00+00:00,276.0,7.03,279.0,10.49,12.41,47.59359,-54.27349
2022-02-07 00:14:00+00:00,275.0,8.61,284.0,10.84,12.41,47.59359,-54.27349
2022-02-07 00:24:00+00:00,288.0,8.92,296.0,11.51,12.41,47.59359,-54.27349
2022-02-07 00:34:00+00:00,283.0,10.03,286.0,10.76,12.41,47.59359,-54.27349
2022-02-07 00:44:00+00:00,283.0,10.0,283.0,10.62,12.41,47.59359,-54.27349
2022-02-07 00:54:00+00:00,281.0,9.35,278.0,10.68,12.41,47.59359,-54.27349
2022-02-07 01:04:00+00:00,291.0,9.88,295.0,11.1,12.41,47.59359,-54.27349
2022-02-07 02:14:01+00:00,298.0,9.45,302.0,11.9,12.41,47.59359,-54.27349
2022-02-07 02:24:01+00:00,299.0,8.67,293.0,10.96,12.41,47.59359,-54.27349
2022-02-07 02:34:01+00:00,299.0,9.88,305.0,12.43,12.41,47.59359,-54.27349
2022-02-07 02:44:01+00:00,293.0,7.73,282.0,11.09,12.41,47.59359,-54.27349
2022-02-07 02:54:01+00:00,290.0,8.63,290.0,11.17,12.41,47.59359,-54.27349
2022-02-07 03:04:01+00:00,302.0,9.5,297.0,11.69,12.41,47.59359,-54.27349
2022-02-07 03:14:01+00:00,309.0,9.5,310.0,11.09,12.33,47.59359,-54.27349
2022-02-07 03:24:01+00:00,311.0,8.39,304.0,11.54,12.33,47.59359,-54.27349
2022-02-07 03:34:01+00:00,318.0,7.61,323.0,8.39,12.33,47.59359,-54.27349
2022-02-07 03:44:01+00:00,310.0,6.07,303.0,7.58,12.33,47.59359,-54.27349
2022-02-07 03:54:01+00:00,324.0,6.71,324.0,7.82,12.33,47.59359,-54.27349
2022-02-07 04:04:01+00:00,315.0,5.69,319.0,7.48,12.33,47.59359,-54.27349
2022-02-07 04:14:00+00:00,311.0,6.57,319.0,7.99,12.33,47.59359,-54.27349
2022-02-07 04:24:00+00:00,317.0,7.0,305.0,8.54,12.33,47.59359,-54.27349
2022-02-07 04:34:00+00:00,314.0,7.72,300.0,9.95,12.33,47.59359,-54.27349
2022-02-07 04:44:00+00:00,324.0,6.17,326.0,7.32,12.33,47.59359,-54.27349
2022-02-07 04:54:00+00:00,324.0,6.05,323.0,7.58,12.33,47.59359,-54.27349
2022-02-07 05:04:00+00:00,312.0,5.8,294.0,7.3,12.33,47.59359,-54.27349
2022-02-07 05:14:01+00:00,317.0,5.35,323.0,6.38,12.25,47.59359,-54.27349
2022-02-07 05:24:01+00:00,309.0,5.32,320.0,6.39,12.25,47.59359,-54.27349
2022-02-07 05:34:01+00:00,310.0,5.6,312.0,6.46,12.25,47.59359,-54.27349
2022-02-07 05:44:01+00:00,322.0,5.73,323.0,6.72,12.25,47.59359,-54.27349
2022-02-07 05:54:01+00:00,308.0,4.55,311.0,5.19,12.25,47.59359,-54.27349
2022-02-07 06:04:01+00:00,318.0,5.52,324.0,6.6,12.25,47.59359,-54.27349
2022-02-07 06:14:00+00:00,314.0,4.81,294.0,5.94,12.25,47.59359,-54.27349
2022-02-07 06:24:00+00:00,301.0,4.83,307.0,5.57,12.25,47.59359,-54.27349
2022-02-07 06:34:00+00:00,306.0,4.62,306.0,5.4,12.25,47.59359,-54.27349
2022-02-07 06:44:00+00:00,307.0,5.6,292.0,10.28,12.25,47.59359,-54.27349
2022-02-07 06:54:00+00:00,290.0,4.88,291.0,5.69,12.25,47.59359,-54.27349
2022-02-07 07:04:00+00:00,304.0,4.82,297.0,5.53,12.25,47.59359,-54.27349
2022-02-07 07:14:00+00:00,289.0,5.31,282.0,9.1,12.25,47.59359,-54.27349
2022-02-07 07:24:00+00:00,313.0,5.53,305.0,7.22,12.25,47.59359,-54.27349
2022-02-07 07:34:00+00:00,300.0,4.99,301.0,6.17,12.25,47.59359,-54.27349
2022-02-07 07:44:00+00:00,300.0,5.65,286.0,9.81,12.25,47.59359,-54.27349
2022-02-07 07:54:00+00:00,300.0,5.31,282.0,7.51,12.25,47.59359,-54.27349
2022-02-07 08:04:00+00:00,310.0,5.39,313.0,6.33,12.25,47.59359,-54.27349
2022-02-07 08:14:00+00:00,301.0,5.01,281.0,8.54,12.25,47.59359,-54.27349
2022-02-07 08:24:00+00:00,308.0,5.19,312.0,6.28,12.25,47.59359,-54.27349
2022-02-07 08:34:00+00:00,309.0,5.08,312.0,5.81,12.25,47.59359,-54.27349
2022-02-07 08:44:00+00:00,311.0,5.09,310.0,5.92,12.25,47.59359,-54.27349
2022-02-07 08:54:00+00:00,298.0,4.72,297.0,6.92,12.25,47.59359,-54.27349
2022-02-07 09:04:00+00:00,303.0,4.26,305.0,5.04,12.25,47.59359,-54.27349
2022-02-07 09:14:00+00:00,309.0,4.04,323.0,5.81,12.17,47.59359,-54.27349
2022-02-07 09:24:00+00:00,301.0,3.88,301.0,4.49,12.17,47.59359,-54.27349
2022-02-07 09:34:00+00:00,316.0,4.08,322.0,5.0,12.17,47.59359,-54.27349
2022-02-07 09:44:00+00:00,328.0,2.72,323.0,3.67,12.17,47.59359,-54.27349
2022-02-07 09:54:00+00:00,321.0,3.86,323.0,4.24,12.17,47.59359,-54.27349
2022-02-07 10:04:00+00:00,323.0,2.84,322.0,3.48,12.17,47.59359,-54.27349
2022-02-07 10:14:00+00:00,335.0,2.77,342.0,3.22,12.17,47.59359,-54.27349
2022-02-07 10:24:00+00:00,317.0,2.59,320.0,3.73,12.17,47.59359,-54.27349
2022-02-07 10:34:00+00:00,342.0,2.33,330.0,3.26,12.17,47.59359,-54.27349
2022-02-07 10:44:00+00:00,313.0,2.38,308.0,2.87,12.17,47.59359,-54.27349
2022-02-07 10:54:00+00:00,318.0,2.26,315.0,3.07,12.17,47.59359,-54.27349
2022-02-07 11:04:00+00:00,263.0,2.35,268.0,3.43,12.17,47.59359,-54.27349
2022-02-07 11:14:01+00:00,291.0,3.22,290.0,3.64,12.41,47.59359,-54.27349
2022-02-07 11:24:01+00:00,287.0,2.83,290.0,3.46,12.41,47.59359,-54.27349
2022-02-07 11:34:01+00:00,291.0,2.85,305.0,3.56,12.41,47.59359,-54.27349
2022-02-07 11:44:01+00:00,253.0,2.06,257.0,2.84,12.41,47.59359,-54.27349
2022-02-07 11:54:01+00:00,275.0,2.04,258.0,2.42,12.41,47.59359,-54.27349
2022-02-07 12:04:01+00:00,283.0,2.65,281.0,3.08,12.41,47.59359,-54.27349
2022-02-07 12:14:00+00:00,262.0,0.75,113.0,2.23,13.84,47.59359,-54.27349
2022-02-07 12:24:00+00:00,78.0,1.02,88.0,2.41,13.84,47.59359,-54.27349
2022-02-07 12:34:00+00:00,122.0,1.51,127.0,2.17,13.84,47.59359,-54.27349
2022-02-07 12:44:00+00:00,129.0,2.47,147.0,2.88,13.84,47.59359,-54.27349
2022-02-07 12:54:00+00:00,112.0,2.17,107.0,2.52,13.84,47.59359,-54.27349
2022-02-07 13:04:00+00:00,133.0,2.77,141.0,3.28,13.84,47.59359,-54.27349
2022-02-07 13:14:01+00:00,130.0,2.24,137.0,2.91,13.68,47.59359,-54.27349
2022-02-07 13:24:01+00:00,200.0,1.82,238.0,4.13,13.68,47.59359,-54.27349
2022-02-07 13:34:01+00:00,252.0,3.48,258.0,7.24,13.68,47.59359,-54.27349
2022-02-07 13:44:01+00:00,161.0,1.9,237.0,4.18,13.68,47.59359,-54.27349
2022-02-07 13:54:01+00:00,233.0,3.63,229.0,4.57,13.68,47.59359,-54.27349
2022-02-07 14:04:01+00:00,255.0,1.98,251.0,4.09,13.68,47.59359,-54.27349
2022-02-07 14:14:00+00:00,131.0,2.21,122.0,3.1,13.92,47.59359,-54.27349
2022-02-07 14:24:00+00:00,136.0,1.93,122.0,2.55,13.92,47.59359,-54.27349
2022-02-07 14:34:00+00:00,35.0,0.71,73.0,2.69,13.92,47.59359,-54.27349
2022-02-07 14:44:00+00:00,119.0,2.19,120.0,2.72,13.92,47.59359,-54.27349
2022-02-07 14:54:00+00:00,85.0,1.77,86.0,2.45,13.92,47.59359,-54.27349
2022-02-07 15:04:00+00:00,66.0,1.45,63.0,2.08,13.92,47.59359,-54.27349
2022-02-07 15:14:00+00:00,101.0,0.92,114.0,2.56,13.68,47.59359,-54.27349
2022-02-07 15:24:00+00:00,18.0,1.16,63.0,2.7,13.68,47.59359,-54.27349
2022-02-07 15:34:00+00:00,175.0,0.7,100.0,2.34,13.68,47.59359,-54.27349
2022-02-07 15:44:00+00:00,239.0,0.59,278.0,0.89,13.68,47.59359,-54.27349
2022-02-07 15:54:00+00:00,180.0,1.16,175.0,1.62,13.68,47.59359,-54.27349
2022-02-07 16:04:00+00:00,130.0,1.51,111.0,2.75,13.68,47.59359,-54.27349
2022-02-07 16:14:00+00:00,154.0,1.28,149.0,1.71,13.68,47.59359,-54.27349
2022-02-07 16:24:00+00:00,148.0,1.54,229.0,2.29,13.68,47.59359,-54.27349
2022-02-07 16:34:00+00:00,183.0,3.03,181.0,4.4,13.68,47.59359,-54.27349
2022-02-07 16:44:00+00:00,169.0,3.22,158.0,4.66,13.68,47.59359,-54.27349
2022-02-07 16:54:00+00:00,176.0,4.15,183.0,4.83,13.68,47.59359,-54.27349
2022-02-07 17:04:00+00:00,196.0,3.97,176.0,4.72,13.68,47.59359,-54.27349
2022-02-07 17:14:00+00:00,201.0,6.23,207.0,7.38,13.53,47.59359,-54.27349
2022-02-07 17:24:00+00:00,204.0,8.18,204.0,9.12,13.53,47.59359,-54.27349
2022-02-07 17:34:00+00:00,195.0,7.13,192.0,8.5,13.53,47.59359,-54.27349
2022-02-07 17:44:00+00:00,184.0,6.96,187.0,7.67,13.53,47.59359,-54.27349
2022-02-07 17:54:00+00:00,189.0,7.61,191.0,8.65,13.53,47.59359,-54.27349
2022-02-07 18:04:00+00:00,197.0,6.75,206.0,8.7,13.53,47.59359,-54.27349
2022-02-07 18:14:00+00:00,195.0,8.45,195.0,10.36,14.0,47.59359,-54.27349
2022-02-07 18:24:00+00:00,206.0,7.09,216.0,8.04,14.0,47.59359,-54.27349
2022-02-07 18:34:00+00:00,207.0,7.76,204.0,9.1,14.0,47.59359,-54.27349
2022-02-07 18:44:00+00:00,209.0,8.19,208.0,9.51,14.0,47.59359,-54.27349
2022-02-07 18:54:00+00:00,198.0,8.17,202.0,10.45,14.0,47.59359,-54.27349
2022-02-07 19:04:00+00:00,197.0,9.39,196.0,10.81,14.0,47.59359,-54.27349
2022-02-07 19:14:00+00:00,201.0,7.72,210.0,10.27,13.6,47.59359,-54.27349
2022-02-07 19:24:00+00:00,211.0,9.24,214.0,10.42,13.6,47.59359,-54.27349
2022-02-07 19:34:00+00:00,206.0,7.37,226.0,9.74,13.6,47.59359,-54.27349
2022-02-07 19:44:00+00:00,195.0,8.91,188.0,10.67,13.6,47.59359,-54.27349
2022-02-07 19:54:00+00:00,199.0,7.68,230.0,9.68,13.6,47.59359,-54.27349
2022-02-07 20:04:00+00:00,202.0,7.18,231.0,9.92,13.6,47.59359,-54.27349
2022-02-07 20:14:00+00:00,193.0,8.92,201.0,10.47,13.13,47.59359,-54.27349
2022-02-07 20:24:00+00:00,203.0,8.21,221.0,11.05,13.13,47.59359,-54.27349
2022-02-07 20:34:00+00:00,199.0,6.81,203.0,8.15,13.13,47.59359,-54.27349
2022-02-07 20:44:00+00:00,196.0,7.61,213.0,11.33,13.13,47.59359,-54.27349
2022-02-07 20:54:00+00:00,204.0,9.15,208.0,12.23,13.13,47.59359,-54.27349
2022-02-07 21:04:00+00:00,209.0,9.57,213.0,11.7,13.13,47.59359,-54.27349
2022-02-07 21:14:01+00:00,208.0,11.34,208.0,12.71,12.57,47.59359,-54.27349
2022-02-07 21:24:01+00:00,206.0,11.17,210.0,12.98,12.57,47.59359,-54.27349
2022-02-07 21:34:01+00:00,207.0,10.93,208.0,12.14,12.57,47.59359,-54.27349
2022-02-07 21:44:01+00:00,206.0,10.41,206.0,11.94,12.57,47.59359,-54.27349
2022-02-07 21:54:01+00:00,193.0,9.01,210.0,10.81,12.57,47.59359,-54.27349
2022-02-07 22:04:01+00:00,197.0,10.03,203.0,11.96,12.57,47.59359,-54.27349
2022-02-07 22:14:00+00:00,206.0,11.04,203.0,12.92,12.49,47.59359,-54.27349
2022-02-07 22:24:00+00:00,205.0,9.33,211.0,11.48,12.49,47.59359,-54.27349
2022-02-07 22:34:00+00:00,199.0,10.04,209.0,11.54,12.49,47.59359,-54.27349
2022-02-07 22:44:00+00:00,188.0,8.14,210.0,9.63,12.49,47.59359,-54.27349
2022-02-07 22:54:00+00:00,199.0,10.02,205.0,11.99,12.49,47.59359,-54.27349
2022-02-07 23:04:00+00:00,167.0,9.05,153.0,10.63,12.49,47.59359,-54.27349
2022-02-07 23:14:01+00:00,154.0,4.18,131.0,6.27,12.49,47.59359,-54.27349
2022-02-07 23:24:01+00:00,252.0,5.5,251.0,6.98,12.49,47.59359,-54.27349
2022-02-07 23:34:01+00:00,245.0,5.95,246.0,7.15,12.49,47.59359,-54.27349
2022-02-07 23:44:01+00:00,244.0,5.61,243.0,6.61,12.49,47.59359,-54.27349
2022-02-07 23:54:01+00:00,241.0,6.24,244.0,7.24,12.49,47.59359,-54.27349
